#timestamp,LO_Frequency,Hit 
1501995615.6,286047016.4,N
1501995635.5,286047014.6,N
1501995655.3,286047014.2,N
1501995675.1,286047018.4,N
1501995695.8,286047014.6,N
1501995715.7,286047014.3,N
1501995735.5,286047016.8,N
1501995755.3,286047018.7,N
1501995775.2,286047016.5,N
1501995795.9,286047016.9,N
1501995815.7,286047017.0,N
1501995835.6,286047017.2,N
1501995855.4,286047015.8,N
1501995875.2,286047016.0,N
1501995895.1,286047014.7,N
1501995896.0,286047014.7,N
1501995915.8,286047014.3,N
1501995935.6,286047017.0,N
1501995955.4,286047018.7,N
1501995975.3,286047017.0,N
1501995995.1,286047016.8,N
1501996015.8,286047016.6,N
1501996035.7,286047018.7,N
1501996055.5,286047018.8,N
1501996075.3,286047016.9,N
1501996095.2,286047018.6,N
1501996115.9,286047015.7,N
1501996135.7,286047015.8,N
1501996155.6,286047016.1,N
1501996175.4,286047015.8,N
1501996195.2,286047015.7,N
1501996215.0,286047015.8,N
1501996215.9,286047015.8,N
1501996235.8,286047018.8,N
1501996255.6,286047017.1,N
1501996275.4,286047016.9,N
1501996295.3,286047015.9,N
1501996315.1,286047016.8,N
1501996335.8,286047015.4,N
1501996355.7,286047013.8,N
1501996375.5,286047013.1,N
1501996395.3,286047015.0,N
1501996415.2,286047012.9,N
1501996435.9,286047017.1,N
1501996455.7,286047016.0,N
1501996475.6,286047015.0,N
1501996495.4,286047013.7,N
1501996515.2,286047013.1,N
1501996535.0,286047012.9,N
1501996535.9,286047012.9,N
1501996555.8,286047015.2,N
1501996575.6,286047016.9,N
1501996595.4,286047014.2,N
1501996615.3,286047015.3,N
1501996635.1,286047015.3,N
1501996655.8,286047016.7,N
1501996675.7,286047014.7,N
1501996695.5,286047012.5,N
1501996715.3,286047015.0,N
1501996735.2,286047013.8,N
1501996755.9,286047015.6,N
1501996775.7,286047015.1,N
1501996795.6,286047014.0,N
1501996815.4,286047011.2,N
1501996835.2,286047013.2,N
1501996855.0,286047013.3,N
1501996855.9,286047013.3,N
1501996875.8,286047011.6,N
1501996895.6,286047012.1,N
1501996915.4,286047013.4,N
1501996935.3,286047013.0,N
1501996955.1,286047011.1,N
1501996975.8,286047013.4,N
1501996995.7,286047011.6,N
1501997015.5,286047012.4,N
1501997035.3,286047010.5,N
1501997055.2,286047009.6,N
1501997075.9,286047012.3,N
1501997095.7,286047010.9,N
1501997115.6,286047011.4,N
1501997135.4,286047013.5,N
1501997155.2,286047011.1,N
1501997175.0,286047011.2,N
1501997176.0,286047011.2,N
1501997195.8,286047011.8,N
1501997215.6,286047011.3,N
1501997235.4,286047013.2,N
1501997255.3,286047013.9,N
1501997275.1,286047010.9,N
1501997295.8,286047013.5,N
1501997315.7,286047011.0,N
1501997335.5,286047012.4,N
1501997355.3,286047012.5,N
1501997375.2,286047013.8,N
1501997395.9,286047012.7,N
1501997415.7,286047011.2,N
1501997435.6,286047009.5,N
1501997455.4,286047010.2,N
1501997475.2,286047012.3,N
1501997495.0,286047011.7,N
1501997496.0,286047011.7,N
1501997515.8,286047012.4,N
1501997535.6,286047011.9,N
1501997555.4,286047010.2,N
1501997575.3,286047010.0,N
1501997595.1,286047012.2,N
1501997615.8,286047013.9,N
1501997635.7,286047010.9,N
1501997655.5,286047011.2,N
1501997675.3,286047011.8,N
1501997695.2,286047011.0,N
1501997715.9,286047010.0,N
1501997735.7,286047010.0,N
1501997755.6,286047009.8,N
1501997775.4,286047009.3,N
1501997795.2,286047011.1,N
1501997815.0,286047011.4,N
1501997816.0,286047011.4,N
1501997835.8,286047009.3,N
1501997855.6,286047011.7,N
1501997875.4,286047009.9,N
1501997895.3,286047013.3,N
1501997915.1,286047009.6,N
1501997935.8,286047011.9,N
1501997955.7,286047010.2,N
1501997975.5,286047009.8,N
1501997995.3,286047011.8,N
1501998015.2,286047009.7,N
1501998035.9,286047013.6,N
1501998055.7,286047010.8,N
1501998075.6,286047010.4,N
1501998095.4,286047010.5,N
1501998115.2,286047009.8,N
1501998135.1,286047010.3,N
1501998136.0,286047010.3,N
1501998155.8,286047009.3,N
1501998175.6,286047011.5,N
1501998195.5,286047013.1,N
1501998215.3,286047012.2,N
1501998235.1,286047011.1,N
1501998255.8,286047011.2,N
1501998275.7,286047011.0,N
1501998295.5,286047011.1,N
1501998315.3,286047013.6,N
1501998335.2,286047011.7,N
1501998355.9,286047011.7,N
1501998375.7,286047012.0,N
1501998395.6,286047009.7,N
1501998415.4,286047012.0,N
1501998435.2,286047011.9,N
1501998455.1,286047010.1,N
1501998475.2,286047010.2,N
1501998495.0,286047009.6,N
1501998495.9,286047009.6,N
1501998515.8,286047008.7,N
1501998535.6,286047007.8,N
1501998555.4,286047010.3,N
1501998575.2,286047008.5,N
1501998595.1,286047007.9,N
1501998596.0,286047007.9,N
1501998615.8,286047009.0,N
1501998635.6,286047010.1,N
1501998655.5,286047008.8,N
1501998675.3,286047009.0,N
1501998695.1,286047007.9,N
1501998715.9,286047007.9,N
1501998735.7,286047007.8,N
1501998755.5,286047008.4,N
1501998775.4,286047007.9,N
1501998795.2,286047008.3,N
1501998815.0,286047008.4,N
1501998815.9,286047008.4,N
1501998835.8,286047010.1,N
1501998855.6,286047010.2,N
1501998875.4,286047007.9,N
1501998895.2,286047008.0,N
1501998915.1,286047007.8,N
1501998916.0,286047007.8,N
1501998935.8,286047008.2,N
1501998955.6,286047007.9,N
1501998975.5,286047007.9,N
1501998995.3,286047010.7,N
1501999015.1,286047007.9,N
1501999035.9,286047010.4,N
1501999055.7,286047008.3,N
1501999075.5,286047010.4,N
1501999095.4,286047010.6,N
1501999115.2,286047010.5,N
1501999135.0,286047010.6,N
1501999135.9,286047010.6,N
1501999155.8,286047008.3,N
1501999175.6,286047008.1,N
1501999195.4,286047007.9,N
